K5HAS Weather Reports


time (UTC)temp
C
wind
direction
speed
KPH
gust
KPH
rain 1hr
cm
rain 24hr
cm
rain mn
cm
humidity
%
barometer
mb
20260502152004 16 24 17.7 29.0 0.00 0.00 0.00 86 1018.9
20260502151452 15 14 14.5 29.0 0.00 0.00 0.00 87 1018.9
20260502151219 15 49 16.1 29.0 0.00 0.00 0.00 87 1018.7
20260502150439 15 90 16.1 29.0 0.00 0.00 0.00 87 1018.7
20260502150207 15 3 16.1 27.4 0.00 0.00 0.00 87 1018.7
20260502130633 13 20 17.7 27.4 0.00 0.00 0.00 89 1017.6
20260502123411 13 359 17.7 29.0 0.00 0.00 0.00 89 1017.2
20260502122916 13 336 16.1 27.4 0.00 0.00 0.00 89 1017.1
20260502122401 13 345 14.5 25.7 0.00 0.00 0.00 89 1017.1
20260502121901 13 350 14.5 24.1 0.00 0.00 0.00 89 1017.1
20260502121401 13 5 14.5 25.7 0.00 0.00 0.00 89 1016.9
20260502120901 13 20 12.9 25.7 0.00 0.00 0.00 89 1016.9
20260502120359 13 347 11.3 25.7 0.00 0.00 0.00 89 1016.9
20260502115859 13 0 12.9 20.9 0.00 0.00 0.00 89 1016.6
20260502115358 13 338 12.9 20.9 0.00 0.00 0.00 89 1016.6
20260502114856 13 3 11.3 19.3 0.00 0.00 0.00 89 1016.6
20260502114357 13 31 12.9 20.9 0.00 0.00 0.00 89 1016.2
20260502114129 13 1 12.9 20.9 0.00 0.00 0.00 89 1016.2
20260502113355 13 346 12.9 20.9 0.00 0.00 0.00 89 1016.2
20260502112846 13 90 11.3 20.9 0.00 0.00 0.00 89 1016.1
20260502112335 13 4 11.3 20.9 0.00 0.00 0.00 89 1016.1
20260502111831 13 10 11.3 20.9 0.00 0.00 0.00 89 1016.1
20260502111331 13 13 11.3 22.5 0.00 0.00 0.00 89 1015.9
20260502110830 13 18 11.3 22.5 0.00 0.00 0.00 89 1015.9
20260502110330 13 90 14.5 22.5 0.00 0.00 0.00 89 1015.9
20260502105832 13 19 16.1 25.7 0.00 0.00 0.00 89 1015.6
20260502105602 13 9 14.5 25.7 0.00 0.00 0.00 89 1015.6
20260502104830 13 20 14.5 24.1 0.00 0.00 0.00 89 1015.6
20260502104551 13 5 12.9 22.5 0.00 0.00 0.00 89 1015.3
20260502103832 13 90 12.9 22.5 0.00 0.00 0.00 89 1015.3
20260502103331 13 35 12.9 20.9 0.00 0.00 0.00 89 1015.3
20260502103105 13 0 12.9 20.9 0.00 0.00 0.00 89 1015.1
20260502102325 13 351 11.3 19.3 0.00 0.00 0.00 89 1015.1
20260502101815 13 90 9.7 17.7 0.00 0.00 0.00 89 1015.1
20260502101305 13 90 9.7 16.1 0.00 0.00 0.00 89 1015.0
20260502100759 13 3 9.7 16.1 0.00 0.00 0.00 89 1015.0
20260502100250 13 4 8.0 12.9 0.00 0.00 0.00 89 1015.0
20260502091144 13 7 11.3 25.7 0.00 0.00 0.00 89 1014.8
20260502090645 13 340 11.3 25.7 0.00 0.00 0.00 89 1014.8
20260502090145 13 90 14.5 25.7 0.00 0.00 0.00 89 1014.8
20260502071049 13 1 16.1 24.1 0.00 0.00 0.00 89 1014.2
20260502070809 13 90 17.7 32.2 0.00 0.00 0.00 89 1014.2
20260502070047 13 12 17.7 32.2 0.00 0.00 0.00 89 1014.2
20260502065547 13 9 19.3 37.0 0.00 0.00 0.00 89 1014.3
20260502065045 13 90 20.9 37.0 0.00 0.00 0.00 89 1014.3
20260502064547 13 14 20.9 37.0 0.00 0.00 0.00 89 1014.3
20260502064045 13 3 17.7 37.0 0.00 0.00 0.00 89 1014.1
20260502063545 13 354 16.1 29.0 0.00 0.00 0.00 89 1014.1
20260502063034 13 5 17.7 29.0 0.00 0.00 0.00 89 1014.1
20260502062532 13 8 20.9 32.2 0.00 0.00 0.00 89 1014.0
20260502062027 13 344 22.5 33.8 0.00 0.00 0.00 89 1014.0
20260502061513 14 354 20.9 37.0 0.00 0.00 0.00 89 1014.0
20260502061003 14 16 20.9 37.0 0.00 0.00 0.00 89 1013.9
20260502060456 14 341 22.5 35.4 0.00 0.00 0.00 89 1013.9
20260502055953 14 342 22.5 38.6 0.00 0.00 0.00 90 1013.9
20260502055727 14 8 19.3 38.6 0.00 0.00 0.00 90 1013.8
20260502054955 13 90 19.3 29.0 0.00 0.00 0.00 90 1013.8
20260502054453 13 349 17.7 29.0 0.00 0.00 0.00 89 1013.8
20260502053954 13 90 16.1 30.6 0.00 0.00 0.00 89 1013.7
20260502053717 13 1 14.5 30.6 0.00 0.00 0.00 90 1013.7
20260502052954 13 8 16.1 30.6 0.00 0.00 0.00 90 1013.7
20260502052454 13 344 17.7 30.6 0.00 0.00 0.00 90 1013.5
20260502052213 13 0 17.7 30.6 0.00 0.00 0.00 90 1013.5
20260502051455 13 11 17.7 29.0 0.00 0.00 0.00 90 1013.5
20260502051212 13 11 19.3 35.4 0.00 0.00 0.00 90 1013.3
20260502050659 13 26 20.9 35.4 0.00 0.00 0.00 90 1013.3
20260502045930 13 4 20.9 38.6 0.00 0.00 0.00 90 1013.0
20260502045416 13 43 22.5 38.6 0.00 0.00 0.00 90 1013.0
20260502044906 13 7 24.1 38.6 0.00 0.00 0.00 90 1013.0
20260502044400 13 90 22.5 38.6 0.00 0.00 0.00 90 1012.9
20260502043849 13 90 22.5 37.0 0.00 0.00 0.00 90 1012.9
20260502043336 14 26 22.5 37.0 0.00 0.00 0.00 90 1012.9
20260502042842 14 14 24.1 38.6 0.00 0.00 0.00 90 1012.9
20260502042542 14 90 24.1 38.6 0.00 0.00 0.00 90 1012.9
20260502041809 14 13 24.1 38.6 0.00 0.00 0.00 90 1012.9
20260502041534 14 16 22.5 37.0 0.00 0.00 0.00 90 1012.8
20260502040750 14 344 24.1 38.6 0.00 0.00 0.00 90 1012.8
20260502040244 14 7 24.1 40.2 0.00 0.00 0.00 90 1012.8
20260502035735 14 7 22.5 40.2 0.00 0.00 0.00 90 1012.8
20260502035509 15 356 20.9 37.0 0.00 0.00 0.00 90 1012.8
20260502034734 15 18 20.9 33.8 0.00 0.00 0.00 90 1012.8
20260502034452 15 350 20.9 40.2 0.00 0.00 0.00 90 1012.5
20260502034005 15 19 22.5 40.2 0.00 0.00 0.00 90 1012.5
20260502033500 15 20 22.5 40.2 0.00 0.00 0.00 90 1012.5
20260502032235 15 336 19.3 38.6 0.00 0.00 0.00 90 1012.4
20260502031734 15 19 19.3 38.6 0.00 0.00 0.00 90 1012.4
20260502031238 15 355 20.9 32.2 0.00 0.00 0.00 90 1012.1
20260502030735 15 23 19.3 35.4 0.00 0.00 0.00 90 1012.1
20260502030452 15 31 19.3 35.4 0.00 0.00 0.00 90 1012.1
20260502025719 15 1 17.7 35.4 0.00 0.00 0.00 90 1011.7
20260502025214 15 5 17.7 32.2 0.00 0.00 0.00 90 1011.7
20260502024715 15 353 17.7 27.4 0.00 0.00 0.00 90 1011.7
20260502024213 15 339 17.7 29.0 0.00 0.00 0.00 90 1011.4
20260502023717 15 2 17.7 33.8 0.00 0.00 0.00 90 1011.4
20260502023216 15 5 19.3 33.8 0.00 0.00 0.00 90 1011.4
20260502022714 15 14 17.7 33.8 0.00 0.00 0.00 90 1011.0
20260502022215 15 355 17.7 33.8 0.00 0.00 0.00 91 1011.0
20260502021715 15 359 17.7 33.8 0.00 0.00 0.00 91 1011.0
20260502021214 15 3 17.7 33.8 0.00 0.00 0.00 90 1010.8
20260502020715 15 18 17.7 33.8 0.00 0.00 0.00 90 1010.8
20260502020429 15 9 17.7 32.2 0.00 0.00 0.00 90 1010.8
20260502015702 16 359 19.3 32.2 0.00 0.00 0.00 90 1010.4
20260502015202 16 12 19.3 32.2 0.00 0.00 0.00 90 1010.4
20260502014702 16 341 17.7 29.0 0.00 0.00 0.00 90 1010.4
20260502014207 16 349 17.7 29.0 0.00 0.00 0.00 90 1009.9
20260502013703 16 342 19.3 29.0 0.00 0.00 0.00 90 1009.9
20260502013206 16 13 17.7 29.0 0.00 0.00 0.00 90 1009.9
20260502012704 16 31 19.3 30.6 0.00 0.00 0.00 90 1010.0
20260502012151 16 11 17.7 30.6 0.00 0.00 0.00 90 1010.0
20260502011636 16 3 17.7 30.6 0.00 0.00 0.00 90 1010.0
20260502011135 16 17 17.7 30.6 0.00 0.00 0.00 90 1009.6
20260502010859 16 18 17.7 30.6 0.00 0.00 0.00 90 1009.6
20260502010136 16 14 17.7 30.6 0.00 0.00 0.00 90 1009.6
20260502005636 16 11 19.3 35.4 0.00 0.00 0.00 90 1009.3
20260502005135 16 359 22.5 35.4 0.00 0.00 0.00 90 1009.3
20260502004638 16 26 20.9 33.8 0.00 0.00 0.00 90 1009.3
20260502004134 16 347 20.9 32.2 0.00 0.00 0.00 90 1009.7
20260502003635 16 9 24.1 37.0 0.00 0.00 0.00 90 1009.7
20260502003135 16 338 24.1 40.2 0.00 0.00 0.00 90 1009.7
20260502002638 16 356 24.1 40.2 0.00 0.00 0.00 90 1009.4
20260502002129 16 355 24.1 40.2 0.00 0.00 0.00 90 1009.4
20260502001623 16 352 22.5 37.0 0.00 0.00 0.00 90 1009.4
20260502001113 16 18 22.5 37.0 0.00 0.00 0.00 90 1009.2
20260502000602 16 339 22.5 37.0 0.00 0.00 0.00 90 1009.2
20260502000319 16 356 20.9 37.0 0.00 0.00 0.00 90 1009.2
20260501235812 17 354 22.5 37.0 0.00 0.00 0.00 90 1009.2
20260501235046 17 90 22.5 37.0 0.00 0.00 0.00 90 1009.2
20260501234547 17 336 22.5 40.2 0.00 0.00 0.00 90 1009.2
20260501234046 17 22 24.1 40.2 0.00 0.00 0.00 90 1008.2
20260501233547 17 3 22.5 37.0 0.00 0.00 0.00 90 1008.2
20260501233045 17 3 24.1 37.0 0.00 0.00 0.00 90 1008.2
20260501232547 17 29 25.7 49.9 0.00 0.00 0.00 90 1008.1
20260501232046 17 12 27.4 49.9 0.00 0.00 0.00 90 1008.1
20260501231547 17 15 30.6 59.5 0.00 0.00 0.00 90 1008.1
20260501231047 17 341 29.0 59.5 0.00 0.00 0.00 90 1008.1
20260501230546 17 342 30.6 59.5 0.00 0.00 0.00 90 1008.1
20260501230046 17 342 35.4 59.5 0.00 0.00 0.00 90 1008.1
20260501225541 17 327 25.7 46.7 0.00 0.00 0.00 90 1006.1
20260501225259 17 334 20.9 32.2 0.00 0.00 0.00 90 1006.1
20260501224533 17 15 20.9 30.6 0.00 0.00 0.00 90 1006.1
20260501224033 17 19 20.9 37.0 0.00 0.00 0.00 90 1005.1
20260501223533 17 45 20.9 37.0 0.00 0.00 0.00 90 1005.1
20260501223254 17 60 20.9 33.8 0.00 0.00 0.00 90 1005.1
20260501222533 17 53 22.5 33.8 0.00 0.00 0.00 90 1006.5
20260501222035 17 22 20.9 33.8 0.00 0.00 0.00 90 1006.5
20260501221535 17 21 19.3 30.6 0.00 0.00 0.00 90 1006.5
20260501221033 17 53 17.7 25.7 0.00 0.00 0.00 90 1006.7
20260501220533 17 11 16.1 24.1 0.00 0.00 0.00 90 1006.7
20260501220034 17 41 14.5 24.1 0.00 0.00 0.00 90 1006.7
20260501215529 18 30 12.9 19.3 0.00 0.00 0.00 90 1006.6
20260501215030 18 43 14.5 29.0 0.00 0.00 0.00 90 1006.6
20260501214528 18 31 17.7 29.0 0.00 0.00 0.00 90 1006.6
20260501214029 17 28 20.9 29.0 0.00 0.00 0.00 90 1006.8
20260501213529 17 36 22.5 35.4 0.00 0.00 0.00 90 1006.8
20260501213028 17 31 20.9 35.4 0.00 0.00 0.00 90 1006.8
20260501212533 18 13 20.9 33.8 0.00 0.00 0.00 90 1007.0
20260501212300 18 49 20.9 38.6 0.00 0.00 0.00 90 1007.0
20260501211749 18 20 20.9 38.6 0.00 0.00 0.00 90 1007.0
20260501211012 18 16 22.5 38.6 0.00 0.00 0.00 90 1006.7
20260501210511 18 90 24.1 38.6 0.00 0.00 0.00 90 1006.7
20260501210011 18 18 24.1 35.4 0.00 0.00 0.00 90 1006.7
20260501205511 18 18 24.1 35.4 0.00 0.00 0.00 90 1006.7
20260501205238 18 21 24.1 35.4 0.00 0.00 0.00 90 1006.7
20260501204510 18 23 22.5 35.4 0.00 0.00 0.00 90 1006.7
20260501204012 18 15 19.3 29.0 0.00 0.00 0.00 90 1007.1
20260501203510 18 19 17.7 27.4 0.00 0.00 0.00 90 1007.1
20260501203010 18 31 16.1 24.1 0.00 0.00 0.00 90 1007.1
20260501202512 18 23 16.1 32.2 0.00 0.00 0.00 90 1007.7
20260501202006 18 9 16.1 32.2 0.00 0.00 0.00 90 1007.7
20260501201455 18 8 19.3 32.2 0.00 0.00 0.00 90 1007.7
20260501200946 18 33 20.9 32.2 0.00 0.00 0.00 90 1006.7
20260501200435 18 359 17.7 32.2 0.00 0.00 0.00 90 1006.7
20260501195930 18 344 12.9 29.0 0.00 0.00 0.00 90 1005.0
20260501195420 18 359 12.9 22.5 0.00 0.00 0.00 90 1005.0
20260501195143 18 11 12.9 22.5 0.00 0.00 0.00 90 1005.0
20260501194408 18 72 9.7 25.7 0.00 0.00 0.00 89 1006.1
20260501193902 18 222 9.7 25.7 0.00 0.00 0.00 90 1006.1
20260501193617 18 270 12.9 37.0 0.00 0.00 0.00 89 1006.1
20260501192842 18 7 20.9 37.0 0.00 0.00 0.00 89 1002.7
20260501192332 18 16 25.7 40.2 0.00 0.00 0.00 89 1002.7
20260501191825 18 46 25.7 41.8 0.00 0.00 0.00 89 1002.7
20260501191312 18 34 20.9 41.8 0.00 0.00 0.00 89 1004.2
20260501190806 18 63 19.3 35.4 0.00 0.00 0.00 89 1004.2
20260501190255 18 57 19.3 35.4 0.00 0.00 0.00 89 1004.2
20260501185750 18 63 19.3 35.4 0.00 0.00 0.00 89 1005.1
20260501185248 18 39 17.7 35.4 0.00 0.00 0.00 89 1005.1
20260501184747 18 42 14.5 30.6 0.00 0.00 0.00 89 1005.1
20260501184247 18 30 16.1 27.4 0.00 0.00 0.00 89 1006.3
20260501184005 18 21 17.7 27.4 0.00 0.00 0.00 89 1006.3
20260501183246 18 57 17.7 38.6 0.00 0.00 0.00 89 1006.3
20260501182747 18 46 19.3 38.6 0.00 0.00 0.00 89 1006.1
20260501182246 18 28 24.1 38.6 0.00 0.00 0.00 89 1006.1
20260501181746 18 28 24.1 38.6 0.00 0.00 0.00 89 1006.1
20260501181247 18 31 22.5 30.6 0.00 0.00 0.00 89 1007.3
20260501180747 18 35 19.3 30.6 0.00 0.00 0.00 89 1007.3
20260501180246 18 23 14.5 24.1 0.00 0.00 0.00 89 1007.3
20260501180012 18 16 14.5 22.5 0.00 0.00 0.00 89 1006.7
20260501175242 18 20 17.7 25.7 0.00 0.00 0.00 89 1006.7
20260501174731 18 26 19.3 30.6 0.00 0.00 0.00 89 1006.7
20260501174227 18 35 19.3 30.6 0.00 0.00 0.00 89 1006.6
20260501173730 18 26 20.9 33.8 0.00 0.00 0.00 89 1006.6
20260501173227 18 28 19.3 33.8 0.00 0.00 0.00 89 1006.6
20260501172729 18 41 16.1 27.4 0.00 0.00 0.00 89 1006.9
20260501172226 18 30 16.1 27.4 0.00 0.00 0.00 89 1006.9
20260501171953 18 40 17.7 27.4 0.00 0.00 0.00 89 1006.9
20260501171227 18 31 17.7 27.4 0.00 0.00 0.00 89 1007.7
20260501170958 18 90 16.1 0.0 0.00 0.00 0.00 89 1008.2
20260501165824 18 39 16.1 30.6 0.00 0.00 0.00 88 1008.2
20260501165324 18 34 17.7 30.6 0.00 0.00 0.00 88 1008.2
20260501164811 18 32 19.3 33.8 0.00 0.00 0.00 88 1008.2
20260501164255 18 30 20.9 33.8 0.00 0.00 0.00 88 1008.2
20260501163744 18 22 20.9 33.8 0.00 0.00 0.00 88 1008.2
20260501163234 18 23 20.9 33.8 0.00 0.00 0.00 88 1008.2
20260501162731 18 33 20.9 40.2 0.00 0.00 0.00 88 1008.7
20260501162236 18 31 20.9 40.2 0.00 0.00 0.00 88 1008.7
20260501161731 18 16 19.3 32.2 0.00 0.00 0.00 88 1008.7
20260501161231 18 16 22.5 38.6 0.00 0.00 0.00 88 1008.8
20260501160729 18 21 25.7 38.6 0.00 0.00 0.00 88 1008.8
20260501160231 18 355 24.1 38.6 0.00 0.00 0.00 88 1008.8
20260501155728 18 9 24.1 45.1 0.00 0.00 0.00 88 1009.3
20260501155230 18 25 24.1 45.1 0.00 0.00 0.00 88 1009.3
20260501154728 19 352 25.7 45.1 0.00 0.00 0.00 88 1009.3
20260501154232 19 353 27.4 45.1 0.00 0.00 0.00 88 1008.9
20260501153936 19 340 20.9 43.5 0.00 0.00 0.00 88 1008.9
20260501153158 19 349 16.1 27.4 0.00 0.00 0.00 88 1008.9